Location: �terpigny
(49.8910°N, 2.9249°E)
Time: 04:25:10
(UTC+00:00)

Cosmos 614 Rocket - Pass Details

Date: 30 May 2022
Orbit: 732 x 764 km, 74.1° (Epoch: 06 July)

Event Time Altitude Azimuth Distance (km) Brightness Sun altitude
Rises 00:43:12 0° 338° (NNW) 3,219 8.1 -17.2°
Reaches altitude 10° 00:45:36 10° 342° (NNW) 2,294 7.3 -17.1°
Maximum altitude 00:50:46 61° 62° (ENE) 865 4.4 -16.9°
Enters shadow 00:55:46 11° 143° (SE) 2,235 6.1 -16.7°
